FW4117 Weather Reports


time (UTC)temp
C
wind
direction
speed
KPH
gust
KPH
rain 1hr
cm
rain 24hr
cm
rain mn
cm
humidity
%
barometer
mb
20210723151503 28 154 6.4 20.9 0.00 0.00 0.00 76 1019.4
20210723151004 28 157 6.4 20.9 0.00 0.00 0.00 76 1019.4
20210723150503 28 180 6.4 14.5 0.00 0.00 0.00 75 1019.5
20210723150003 28 191 6.4 14.5 0.00 0.00 0.00 76 1019.5
20210723145503 28 187 6.4 14.5 0.00 0.00 0.00 76 1019.5
20210723145004 28 145 6.4 17.7 0.00 0.00 0.00 77 1019.5
20210723144504 28 137 6.4 17.7 0.00 0.00 0.00 76 1019.7
20210723144003 28 169 6.4 16.1 0.00 0.00 0.00 76 1019.6
20210723143503 28 168 6.4 16.1 0.00 0.00 0.00 76 1019.6
20210723143003 28 159 6.4 16.1 0.00 0.00 0.00 77 1019.6
20210723142503 28 142 6.4 16.1 0.00 0.00 0.00 78 1019.7
20210723142003 27 140 6.4 19.3 0.00 0.00 0.00 78 1019.6
20210723141503 27 157 8.0 19.3 0.00 0.00 0.00 78 1019.6
20210723141003 27 155 6.4 16.1 0.00 0.00 0.00 78 1019.6
20210723140503 27 152 6.4 16.1 0.00 0.00 0.00 79 1019.5
20210723140003 27 161 6.4 16.1 0.00 0.00 0.00 80 1019.5
20210723135503 27 166 8.0 16.1 0.00 0.00 0.00 80 1019.4
20210723135003 27 160 6.4 14.5 0.00 0.00 0.00 80 1019.4
20210723134503 26 157 6.4 17.7 0.00 0.00 0.00 81 1019.3
20210723134003 26 160 4.8 17.7 0.00 0.00 0.00 81 1019.4
20210723133503 26 149 4.8 14.5 0.00 0.00 0.00 82 1019.2
20210723133004 26 144 6.4 16.1 0.00 0.00 0.00 83 1019.2
20210723132503 26 160 6.4 16.1 0.00 0.00 0.00 83 1019.1
20210723132003 26 155 4.8 16.1 0.00 0.00 0.00 83 1019.1
20210723131503 25 140 4.8 16.1 0.00 0.00 0.00 84 1019.2
20210723131003 25 161 4.8 11.3 0.00 0.00 0.00 84 1019.1
20210723130503 25 166 4.8 11.3 0.00 0.00 0.00 85 1018.9
20210723130003 25 166 4.8 9.7 0.00 0.00 0.00 85 1019.0
20210723125503 25 176 4.8 17.7 0.00 0.00 0.00 85 1019.0
20210723125003 25 169 6.4 17.7 0.00 0.00 0.00 85 1019.1
20210723124503 25 176 6.4 17.7 0.00 0.00 0.00 85 1019.0
20210723124003 25 163 4.8 16.1 0.00 0.00 0.00 86 1018.9
20210723123503 25 150 4.8 16.1 0.00 0.00 0.00 86 1018.9
20210723123003 24 154 3.2 8.0 0.00 0.00 0.00 86 1018.9
20210723122503 24 157 3.2 8.0 0.00 0.00 0.00 86 1018.8
20210723122003 24 166 3.2 8.0 0.00 0.00 0.00 86 1018.8
20210723121503 24 165 4.8 11.3 0.00 0.00 0.00 86 1018.7
20210723121003 24 164 4.8 11.3 0.00 0.00 0.00 86 1018.7
20210723120503 24 164 4.8 12.9 0.00 0.00 0.00 86 1018.7
20210723120003 24 158 3.2 12.9 0.00 0.00 0.00 86 1018.6
20210723115503 24 164 3.2 11.3 0.00 0.00 0.00 85 1018.6
20210723115003 24 185 4.8 11.3 0.00 0.00 0.00 85 1018.7
20210723114503 24 179 4.8 12.9 0.00 0.00 0.00 85 1018.8
20210723114003 24 160 4.8 14.5 0.00 0.00 0.00 85 1018.8
20210723113503 24 163 4.8 12.9 0.00 0.00 0.00 84 1018.7
20210723113003 24 160 4.8 14.5 0.00 0.00 0.00 84 1018.6
20210723112503 24 159 6.4 14.5 0.00 0.00 0.00 84 1018.7
20210723112003 24 158 4.8 19.3 0.00 0.00 0.00 84 1018.7
20210723111503 24 161 4.8 16.1 0.00 0.00 0.00 83 1018.9
20210723111004 24 150 3.2 9.7 0.00 0.00 0.00 83 1018.7
20210723110503 24 150 4.8 9.7 0.00 0.00 0.00 83 1018.7
20210723110003 24 161 3.2 9.7 0.00 0.00 0.00 82 1018.6
20210723105503 24 154 3.2 9.7 0.00 0.00 0.00 82 1018.6
20210723105003 24 151 3.2 11.3 0.00 0.00 0.00 82 1018.8
20210723104503 24 155 3.2 11.3 0.00 0.00 0.00 82 1018.7
20210723104003 24 151 3.2 11.3 0.00 0.00 0.00 81 1018.6
20210723103503 24 160 3.2 11.3 0.00 0.00 0.00 81 1018.6
20210723103003 24 154 3.2 8.0 0.00 0.00 0.00 81 1018.6
20210723102503 24 137 3.2 8.0 0.00 0.00 0.00 81 1018.7
20210723102003 24 163 3.2 8.0 0.00 0.00 0.00 81 1018.8
20210723101503 24 171 1.6 8.0 0.00 0.00 0.00 81 1018.7
20210723101003 25 132 3.2 6.4 0.00 0.00 0.00 81 1018.7
20210723100503 25 137 3.2 11.3 0.00 0.00 0.00 80 1018.6
20210723100003 25 145 3.2 11.3 0.00 0.00 0.00 80 1018.6
20210723095503 25 149 3.2 9.7 0.00 0.00 0.00 79 1018.6
20210723095003 25 173 3.2 9.7 0.00 0.00 0.00 80 1018.6
20210723094503 25 161 3.2 12.9 0.00 0.00 0.00 79 1018.6
20210723094003 25 152 3.2 12.9 0.00 0.00 0.00 79 1018.5
20210723093503 25 146 3.2 8.0 0.00 0.00 0.00 79 1018.5
20210723093003 25 141 3.2 9.7 0.00 0.00 0.00 79 1018.3
20210723092503 25 147 4.8 16.1 0.00 0.00 0.00 79 1018.3
20210723092004 25 150 3.2 16.1 0.00 0.00 0.00 80 1018.3
20210723091503 25 172 3.2 6.4 0.00 0.00 0.00 81 1018.3
20210723091003 25 179 3.2 6.4 0.00 0.00 0.00 80 1018.4
20210723090503 25 143 3.2 6.4 0.00 0.00 0.00 80 1018.3
20210723090003 25 131 3.2 6.4 0.00 0.00 0.00 79 1018.2
20210723085503 25 152 3.2 8.0 0.00 0.00 0.00 79 1018.2
20210723085003 25 161 3.2 9.7 0.00 0.00 0.00 79 1018.1
20210723084503 25 154 3.2 9.7 0.00 0.00 0.00 79 1018.3
20210723084003 25 150 1.6 6.4 0.00 0.00 0.00 80 1018.3
20210723083504 25 139 1.6 4.8 0.00 0.00 0.00 81 1018.3
20210723083004 25 133 3.2 11.3 0.00 0.00 0.00 80 1018.3
20210723082504 25 139 3.2 11.3 0.00 0.00 0.00 79 1018.3
20210723082003 25 143 1.6 6.4 0.00 0.00 0.00 78 1018.4
20210723081504 25 146 1.6 6.4 0.00 0.00 0.00 78 1018.3
20210723081004 25 154 1.6 6.4 0.00 0.00 0.00 79 1018.3
20210723080504 26 149 3.2 8.0 0.00 0.00 0.00 79 1018.3
20210723080003 26 141 3.2 14.5 0.00 0.00 0.00 78 1018.4
20210723075504 26 134 1.6 6.4 0.00 0.00 0.00 78 1018.3
20210723075003 26 150 1.6 6.4 0.00 0.00 0.00 77 1018.3
20210723074504 26 167 3.2 9.7 0.00 0.00 0.00 77 1018.3
20210723074004 26 164 3.2 9.7 0.00 0.00 0.00 77 1018.2
20210723073504 26 155 3.2 8.0 0.00 0.00 0.00 77 1018.2
20210723073004 26 147 3.2 8.0 0.00 0.00 0.00 77 1018.2
20210723072503 26 144 3.2 11.3 0.00 0.00 0.00 77 1018.2
20210723072005 26 139 3.2 11.3 0.00 0.00 0.00 77 1018.2
20210723071504 26 148 4.8 12.9 0.00 0.00 0.00 77 1018.1
20210723071003 26 150 4.8 12.9 0.00 0.00 0.00 76 1018.0
20210723070504 26 140 4.8 12.9 0.00 0.00 0.00 76 1018.1
20210723070004 26 134 4.8 12.9 0.00 0.00 0.00 75 1018.1
20210723065503 26 143 3.2 9.7 0.00 0.00 0.00 75 1018.0
20210723065003 26 145 1.6 8.0 0.00 0.00 0.00 75 1017.9
20210723064504 26 111 3.2 4.8 0.00 0.00 0.00 75 1018.0
20210723064004 27 103 3.2 6.4 0.00 0.00 0.00 75 1018.1
20210723063504 27 154 3.2 8.0 0.00 0.00 0.00 74 1017.9
20210723063004 27 182 3.2 9.7 0.00 0.00 0.00 74 1017.9
20210723062504 27 185 3.2 9.7 0.00 0.00 0.00 74 1017.8
20210723062005 27 159 3.2 6.4 0.00 0.00 0.00 74 1017.9
20210723061503 27 153 3.2 6.4 0.00 0.00 0.00 74 1017.9
20210723061004 27 153 3.2 8.0 0.00 0.00 0.00 74 1017.8
20210723060504 27 157 3.2 8.0 0.00 0.00 0.00 74 1017.8
20210723060003 27 132 3.2 8.0 0.00 0.00 0.00 73 1017.8
20210723055504 27 135 3.2 9.7 0.00 0.00 0.00 73 1017.9
20210723055003 27 154 3.2 9.7 0.00 0.00 0.00 73 1017.9
20210723054504 27 153 4.8 11.3 0.00 0.00 0.00 73 1017.8
20210723054003 27 146 4.8 11.3 0.00 0.00 0.00 72 1017.8
20210723053503 27 147 4.8 11.3 0.00 0.00 0.00 72 1017.8
20210723053003 27 143 4.8 11.3 0.00 0.00 0.00 72 1017.8
20210723052503 27 127 4.8 11.3 0.00 0.00 0.00 72 1017.9
20210723052003 28 130 4.8 12.9 0.00 0.00 0.00 71 1017.8
20210723051504 28 133 4.8 12.9 0.00 0.00 0.00 71 1017.8
20210723051003 28 131 4.8 11.3 0.00 0.00 0.00 70 1017.9
20210723050503 28 126 4.8 11.3 0.00 0.00 0.00 70 1017.9
20210723050004 28 121 4.8 12.9 0.00 0.00 0.00 69 1017.8
20210723045503 28 119 6.4 17.7 0.00 0.00 0.00 69 1017.9
20210723045003 28 119 6.4 17.7 0.00 0.00 0.00 69 1017.9
20210723044503 28 127 6.4 17.7 0.00 0.00 0.00 69 1017.9
20210723044003 28 136 4.8 16.1 0.00 0.00 0.00 69 1017.8
20210723043503 28 132 3.2 12.9 0.00 0.00 0.00 69 1017.9
20210723043003 28 121 3.2 6.4 0.00 0.00 0.00 69 1017.9
20210723042503 28 123 3.2 6.4 0.00 0.00 0.00 69 1018.0
20210723042003 28 122 3.2 8.0 0.00 0.00 0.00 69 1017.9
20210723041504 28 122 3.2 8.0 0.00 0.00 0.00 68 1017.8
20210723041003 29 126 4.8 11.3 0.00 0.00 0.00 68 1017.8
20210723040503 29 125 4.8 12.9 0.00 0.00 0.00 67 1017.8
20210723040003 29 124 4.8 12.9 0.00 0.00 0.00 67 1017.7
20210723035503 29 129 3.2 11.3 0.00 0.00 0.00 67 1017.7
20210723035003 29 131 3.2 11.3 0.00 0.00 0.00 66 1017.8
20210723034503 29 129 3.2 11.3 0.00 0.00 0.00 66 1017.8
20210723034003 29 129 4.8 11.3 0.00 0.00 0.00 66 1017.8
20210723033503 29 126 4.8 12.9 0.00 0.00 0.00 65 1017.6
20210723033003 29 122 4.8 16.1 0.00 0.00 0.00 65 1017.6
20210723032503 30 120 4.8 11.3 0.00 0.00 0.00 65 1017.6
20210723032004 30 114 4.8 12.9 0.00 0.00 0.00 64 1017.7
20210723031503 29 110 3.2 12.9 0.00 0.00 0.00 64 1017.5
20210723031003 29 112 1.6 11.3 0.00 0.00 0.00 64 1017.6
20210723030503 29 119 1.6 4.8 0.00 0.00 0.00 63 1017.5
20210723030003 30 128 1.6 4.8 0.00 0.00 0.00 63 1017.4
20210723025503 30 128 3.2 4.8 0.00 0.00 0.00 63 1017.5
20210723025003 30 130 3.2 6.4 0.00 0.00 0.00 63 1017.4
20210723024503 30 134 3.2 6.4 0.00 0.00 0.00 62 1017.3
20210723024003 30 130 1.6 4.8 0.00 0.00 0.00 62 1017.4
20210723023503 30 129 1.6 4.8 0.00 0.00 0.00 61 1017.3
20210723023003 30 128 3.2 4.8 0.00 0.00 0.00 61 1017.2
20210723022503 30 127 3.2 6.4 0.00 0.00 0.00 60 1017.3
20210723022003 30 129 3.2 9.7 0.00 0.00 0.00 60 1017.1
20210723021503 30 129 4.8 12.9 0.00 0.00 0.00 59 1017.1
20210723021003 30 122 4.8 12.9 0.00 0.00 0.00 59 1017.0
20210723020503 30 121 4.8 11.3 0.00 0.00 0.00 59 1016.9
20210723020003 31 123 4.8 11.3 0.00 0.00 0.00 59 1016.9
20210723015503 31 124 4.8 11.3 0.00 0.00 0.00 59 1016.9
20210723015003 31 127 4.8 12.9 0.00 0.00 0.00 59 1016.8
20210723014504 31 125 4.8 12.9 0.00 0.00 0.00 58 1016.8
20210723014003 31 126 4.8 12.9 0.00 0.00 0.00 58 1016.8
20210723013503 31 125 4.8 12.9 0.00 0.00 0.00 57 1016.7
20210723013003 31 119 4.8 16.1 0.00 0.00 0.00 57 1016.6
20210723012503 31 123 4.8 16.1 0.00 0.00 0.00 57 1016.7
20210723012003 31 128 4.8 14.5 0.00 0.00 0.00 57 1016.7
20210723011503 31 127 6.4 14.5 0.00 0.00 0.00 56 1016.6
20210723011003 32 126 6.4 16.1 0.00 0.00 0.00 56 1016.7
20210723010503 32 122 6.4 12.9 0.00 0.00 0.00 56 1016.8
20210723010003 32 126 4.8 12.9 0.00 0.00 0.00 56 1016.8
20210723005503 32 128 4.8 11.3 0.00 0.00 0.00 56 1016.6
20210723005004 32 125 4.8 11.3 0.00 0.00 0.00 55 1016.5
20210723004503 32 121 4.8 14.5 0.00 0.00 0.00 54 1016.6
20210723004004 32 120 6.4 14.5 0.00 0.00 0.00 54 1016.5
20210723003504 32 119 4.8 12.9 0.00 0.00 0.00 52 1016.4
20210723003003 32 121 4.8 12.9 0.00 0.00 0.00 52 1016.4
20210723002503 32 125 4.8 14.5 0.00 0.00 0.00 51 1016.3
20210723002003 32 123 4.8 14.5 0.00 0.00 0.00 51 1016.1
20210723001503 32 122 4.8 11.3 0.00 0.00 0.00 52 1016.2
20210723001003 32 124 4.8 11.3 0.00 0.00 0.00 52 1016.0
20210723000503 32 127 4.8 12.9 0.00 0.00 0.00 52 1016.1
20210723000003 33 126 4.8 12.9 0.00 0.00 0.00 52 1016.1
20210722235503 33 122 4.8 12.9 0.00 0.00 0.00 51 1016.1
20210722235003 33 124 4.8 11.3 0.00 0.00 0.00 52 1016.1
20210722234503 33 102 3.2 11.3 0.00 0.00 0.00 51 1016.1
20210722234003 33 70 3.2 6.4 0.00 0.00 0.00 52 1016.1
20210722233504 33 100 3.2 6.4 0.00 0.00 0.00 51 1016.2
20210722233004 33 135 3.2 6.4 0.00 0.00 0.00 50 1016.2
20210722232504 33 138 3.2 8.0 0.00 0.00 0.00 49 1016.2
20210722232004 33 124 3.2 8.0 0.00 0.00 0.00 50 1016.2
20210722231504 33 121 3.2 9.7 0.00 0.00 0.00 50 1016.3
20210722231004 33 129 3.2 11.3 0.00 0.00 0.00 49 1016.3
20210722230503 33 133 3.2 11.3 0.00 0.00 0.00 49 1016.2
20210722230004 33 129 3.2 14.5 0.00 0.00 0.00 49 1016.2
20210722225503 33 125 3.2 6.4 0.00 0.00 0.00 50 1016.3
20210722225004 33 123 3.2 6.4 0.00 0.00 0.00 51 1016.4
20210722224503 33 121 3.2 6.4 0.00 0.00 0.00 50 1016.5
20210722224003 33 146 3.2 8.0 0.00 0.00 0.00 49 1016.4
20210722223503 34 149 3.2 8.0 0.00 0.00 0.00 48 1016.5
20210722223003 34 129 3.2 9.7 0.00 0.00 0.00 48 1016.5
20210722222503 34 118 3.2 8.0 0.00 0.00 0.00 49 1016.5
20210722222003 34 129 3.2 8.0 0.00 0.00 0.00 48 1016.6
20210722221504 33 137 3.2 8.0 0.00 0.00 0.00 52 1016.6
20210722221004 33 138 3.2 6.4 0.00 0.00 0.00 53 1016.7
20210722220503 33 145 3.2 8.0 0.00 0.00 0.00 53 1016.7
20210722220004 33 147 3.2 8.0 0.00 0.00 0.00 53 1016.7
20210722215503 33 148 3.2 8.0 0.00 0.00 0.00 50 1016.8
20210722215003 34 131 3.2 8.0 0.00 0.00 0.00 50 1016.8
20210722214503 33 156 3.2 8.0 0.00 0.00 0.00 52 1016.9
20210722214003 33 163 3.2 8.0 0.00 0.00 0.00 50 1016.9
20210722213504 33 125 3.2 11.3 0.00 0.00 0.00 52 1017.0
20210722213004 33 127 3.2 11.3 0.00 0.00 0.00 50 1017.0
20210722212503 33 124 3.2 11.3 0.00 0.00 0.00 50 1017.0
20210722212003 33 106 4.8 12.9 0.00 0.00 0.00 52 1017.2
20210722211504 34 105 4.8 12.9 0.00 0.00 0.00 50 1017.3
20210722211003 34 126 4.8 11.3 0.00 0.00 0.00 51 1017.3
20210722210503 33 146 4.8 9.7 0.00 0.00 0.00 51 1017.2
20210722210004 33 122 4.8 11.3 0.00 0.00 0.00 50 1017.3
20210722205504 33 82 4.8 14.5 0.00 0.00 0.00 51 1017.4
20210722205003 33 80 3.2 14.5 0.00 0.00 0.00 51 1017.4
20210722204504 34 151 3.2 8.0 0.00 0.00 0.00 53 1017.4
20210722204003 34 148 4.8 11.3 0.00 0.00 0.00 51 1017.5
20210722203503 34 160 4.8 11.3 0.00 0.00 0.00 49 1017.6
20210722203004 34 129 4.8 11.3 0.00 0.00 0.00 50 1017.6
20210722202503 33 114 4.8 14.5 0.00 0.00 0.00 52 1017.7
20210722202003 33 124 4.8 14.5 0.00 0.00 0.00 51 1017.7
20210722201503 33 114 6.4 16.1 0.00 0.00 0.00 52 1017.7
20210722201003 33 109 4.8 14.5 0.00 0.00 0.00 50 1017.9
20210722200503 33 122 3.2 8.0 0.00 0.00 0.00 49 1017.9
20210722200003 33 135 3.2 9.7 0.00 0.00 0.00 52 1017.9
20210722195503 34 137 3.2 9.7 0.00 0.00 0.00 52 1018.1
20210722195003 33 130 3.2 12.9 0.00 0.00 0.00 50 1018.2
20210722194503 33 131 4.8 12.9 0.00 0.00 0.00 53 1018.2
20210722194003 33 129 4.8 9.7 0.00 0.00 0.00 50 1018.2
20210722193503 33 121 6.4 16.1 0.00 0.00 0.00 52 1018.4
20210722193003 34 117 4.8 16.1 0.00 0.00 0.00 51 1018.4
20210722192503 33 107 4.8 16.1 0.00 0.00 0.00 51 1018.5
20210722192003 33 102 3.2 11.3 0.00 0.00 0.00 52 1018.4
20210722191503 33 116 3.2 14.5 0.00 0.00 0.00 53 1018.5
20210722191003 33 101 4.8 14.5 0.00 0.00 0.00 53 1018.7
20210722190503 32 92 3.2 14.5 0.00 0.00 0.00 55 1018.7
20210722190003 32 81 3.2 9.7 0.00 0.00 0.00 56 1018.7
20210722185508 32 71 4.8 9.7 0.00 0.00 0.00 55 1018.7
20210722185003 33 72 4.8 9.7 0.00 0.00 0.00 55 1018.8
20210722184503 32 92 4.8 12.9 0.00 0.00 0.00 56 1018.8
20210722184004 33 123 4.8 14.5 0.00 0.00 0.00 53 1018.8
20210722183503 33 151 4.8 14.5 0.00 0.00 0.00 56 1018.9
20210722183003 33 137 4.8 16.1 0.00 0.00 0.00 57 1019.0
20210722182504 32 121 6.4 16.1 0.00 0.00 0.00 56 1019.0
20210722182003 33 117 4.8 11.3 0.00 0.00 0.00 55 1019.0
20210722181503 33 114 4.8 12.9 0.00 0.00 0.00 56 1019.2
20210722181003 32 116 6.4 16.1 0.00 0.00 0.00 56 1019.2
20210722180504 32 132 6.4 16.1 0.00 0.00 0.00 55 1019.2
20210722180003 32 129 4.8 12.9 0.00 0.00 0.00 55 1019.2
20210722175504 32 114 4.8 11.3 0.00 0.00 0.00 57 1019.3
20210722175004 32 90 6.4 12.9 0.00 0.00 0.00 57 1019.3
20210722174503 32 82 4.8 12.9 0.00 0.00 0.00 58 1019.4
20210722174003 32 98 4.8 12.9 0.00 0.00 0.00 59 1019.4
20210722173504 32 102 4.8 12.9 0.00 0.00 0.00 59 1019.4
20210722173004 32 108 4.8 12.9 0.00 0.00 0.00 59 1019.5
20210722172503 32 122 4.8 11.3 0.00 0.00 0.00 57 1019.6
20210722172003 32 112 4.8 11.3 0.00 0.00 0.00 60 1019.6
20210722171503 32 99 4.8 11.3 0.00 0.00 0.00 61 1019.7
20210722171003 32 104 3.2 12.9 0.00 0.00 0.00 58 1019.7
20210722170503 32 109 4.8 12.9 0.00 0.00 0.00 62 1019.8
20210722170003 31 120 4.8 11.3 0.00 0.00 0.00 60 1019.8
20210722165503 31 132 4.8 16.1 0.00 0.00 0.00 61 1019.8
20210722165003 31 140 4.8 12.9 0.00 0.00 0.00 63 1019.8
20210722164504 31 148 4.8 12.9 0.00 0.00 0.00 64 1019.8
20210722164003 31 150 4.8 14.5 0.00 0.00 0.00 65 1019.7
20210722163503 30 147 3.2 14.5 0.00 0.00 0.00 63 1019.7
20210722163004 31 149 3.2 9.7 0.00 0.00 0.00 62 1019.8
20210722162503 31 130 4.8 12.9 0.00 0.00 0.00 64 1019.9
20210722162004 31 117 4.8 12.9 0.00 0.00 0.00 63 1019.8
20210722161504 31 130 4.8 12.9 0.00 0.00 0.00 64 1019.7
20210722161004 31 136 3.2 11.3 0.00 0.00 0.00 64 1019.7
20210722160505 31 114 3.2 11.3 0.00 0.00 0.00 64 1019.9
20210722160003 31 113 3.2 9.7 0.00 0.00 0.00 66 1019.9
20210722155503 30 103 3.2 14.5 0.00 0.00 0.00 66 1019.9
20210722155003 30 100 3.2 8.0 0.00 0.00 0.00 66 1019.8
20210722154504 30 118 3.2 8.0 0.00 0.00 0.00 66 1019.8
20210722154003 30 119 4.8 12.9 0.00 0.00 0.00 66 1019.9
20210722153503 30 128 4.8 12.9 0.00 0.00 0.00 67 1019.8
20210722153003 30 137 3.2 11.3 0.00 0.00 0.00 66 1019.8
20210722152503 30 125 3.2 11.3 0.00 0.00 0.00 66 1019.8
20210722152003 29 119 3.2 6.4 0.00 0.00 0.00 67 1019.8